Location: Tierra Monte Subdivision
(35.2092°N, 106.4864°W)
Time: 19:16:41
(UTC+00:00)

USA 186 - Pass Details

Date: 30 March 2020
Orbit: 262 x 445 km, 96.9° (Epoch: 03 June)

Event Time Altitude Azimuth Distance (km) Brightness Sun altitude
Rises 01:08:17 0° 88° (E) 2,468 4.9 2.7°
Enters shadow 02:12:42 -54° 169° (SSE) 10,650 8.8 -10.3°
Maximum altitude 02:40:40 66° 77° (ENE) 501 1.8 -15.9°
